星链-6180 (STARLINK-6180 )

导读 | 星芒AI

STARLINK-6180 是 SpaceX Starlink 项目中的一颗低轨通信卫星,属于第六批发射的星链卫星群。该卫星运行在约 550 公里的高度,旨在为全球用户提供高速、低延迟的互联网服务。作为 Starlink 网络的一部分,STARLINK-6180 与其他数千颗卫星协同工作,提升偏远和农村地区的网络覆盖。其采用先进推进系统和激光通信技术,提高运行效率和数据传输能力,助力实现 SpaceX 构建全球宽带网络的目标。

基本信息
目录编号:
56887
目录名称:
STARLINK-6180
国际标识:
2023-083M
轨道中心:
EARTH
卫星名称:
星链-6180
卫星全名:
星链-6180 (STARLINK-6180 )
卫星状态:
在轨 (已飞行923 天)
发射日期:
2023-06-12 UTC
国别 :
美国 (US)
星等 :
--
轨道信息
数据来源 国际轨道数据 AOE轨道数据
星历时间 2025-12-21T19:22:32+0800
8小时前
查看轨道信息
2025-12-21T05:00:00+0800
22小时前
查看轨道信息
半长轴 6937.216km 6937.208km
偏心率 0.0001113 0.000116
轨道倾角 43.002° 43.007°
近地点辐角 268.943° 253.551°
升交点赤经 146.870° 150.125°
平近点角 91.129° 102.806°
近地点 558.306km 558.266km
远地点 559.852km 559.876km
周期 95.838分钟 95.838分钟
每日圈数 15.025364 15.025389
详细信息
固有亮度:
5
最大亮度:
2.4
卫星平台:
Starlink v1.5
覆盖范围:
全球
运营商:
太空探索技术公司
运营商所在国:
美国
制造商(研发单位):
太空探索技术公司
制造商所在国:
美国
使用方式:
暂无
卫星简介
星链(Starlink)计划是由太空探索技术公司(SpaceX)提出的一个巨型低轨卫星互联网星座项目,计划在2019年至2024年间在太空搭建由约1.2万颗卫星组成的“星链”网络,其中1584颗将部署在地球上空550千米处的近地轨道,并从2020年开始工作。该卫星仍在工作。
2D轨道图
3D轨道图
轨道高度分析图
轨道倾角分析图
轨道综合分析图
查看轨道综合分析图